Location: Amsterdam
(30.7274°N, 84.4357°W)
Time: 21:59:13
(UTC+00:00)

Tiros 1 despin weight - Pass Details

Date: 22 February 2026
Orbit: 556 x 593 km, 48.2° (Epoch: 9 March)

Event Time Altitude Azimuth Distance (km) Brightness Sun altitude
Rises 23:45:29 0° 323° (NW) 2,731 ? -3.8°
Reaches altitude 10° 23:48:21 10° 343° (NNW) 1,834 ? -4.4°
Maximum altitude 23:51:13 18° 26° (NNE) 1,406 ? -5.1°
Drops below altitude 10° 23:54:06 10° 70° (ENE) 1,835 ? -5.7°
Enters shadow 23:54:56 - 78° (ENE) 2,073 ? -5.8°
Sets 23:56:57 0° 90° (E) 2,733 - -6.3°
